Home   Weather   Völkermarkt   Past weeks

Flag for Austria Past Weather in Völkermarkt, Carinthia, Austria — Yesterday and Last 2 Weeks

Now
65 °F

Partly sunny.


Feels Like: 65 °F
Forecast: 47 / 71 °F
Wind: N/A

Location: Klagenfurt-Flughafen

Current Time: Sep 29, 2016 at 2:02:18 PM

Latest Report: Sep 29, 2016 at 1:00 PM


Visibility: 10 mi

Pressure: 30.26 "Hg

Humidity: 64%

Dew Point: 52 °F

Location of VölkermarktLocation

Past Weather in Völkermarkt — Graph

°F

Völkermarkt Temperature Yesterday

Maximum temperature yesterday: 70 °F (at 4:00 PM)
Minimum temperature yesterday: 47 °F (at 8:00 AM)
Average temperature yesterday: 57 °F

High & Low Weather Summary for the Past Weeks

 TemperatureHumidityPressure
High79 °F (Sep 14, 5:00 PM)96% (Sep 16, 5:00 AM)30.47 "Hg (Sep 16, 5:00 AM)
Low43 °F (Sep 23, 7:00 AM)36% (Sep 22, 4:00 PM)29.78 "Hg (Sep 17, 6:00 AM)
Average59 °F77%30.10 "Hg
* Reported Sep 14 12:00 PM — Sep 29 12:00 PM, Völkermarkt, Weather by CustomWeather, © 2016

Note: Actual official high and low records may vary slightly from our data, if they occured in-between our weather recording intervals... More about our weather records

Advertising

Völkermarkt Weather History for the Previous 24 Hours

Scroll right to see more
 ConditionsComfort  
Time TempWeatherWind HumidityBarometerVisibility
12:00 PM
Thu, Sep 29
62 °FPartly sunny.N/A71%30.30 "Hg14 mi
11:00 AM58 °FPartly sunny.N/A79%30.35 "Hg13 mi
10:00 AM52 °FPartly sunny.N/A88%30.38 "Hg7 mi
9:00 AM49 °FLight rain. Low clouds.N/A93%30.39 "Hg1 mi
8:00 AM47 °FLight rain. Low clouds.N/A94%30.41 "Hg5 mi
7:00 AM48 °FLow clouds.N/A95%30.40 "Hg5 mi
6:00 AM47 °FPassing clouds.N/A95%30.40 "Hg1 mi
5:00 AM48 °FCool.N/A94%30.41 "Hg4 mi
4:00 AM49 °FCool.N/A94%30.40 "Hg4 mi
3:00 AM49 °FCool.N/A94%30.40 "Hg4 mi
2:00 AM50 °FCool.N/A93%30.41 "Hg4 mi
1:00 AM51 °FPassing clouds.N/A91%30.41 "Hg6 mi
12:00 AM52 °FCool.N/A91%30.40 "Hg6 mi
11:00 PM
Wed, Sep 28
53 °FCool.N/A88%30.40 "Hg8 mi
10:00 PM54 °FCool.N/A87%30.39 "Hg7 mi
9:00 PM56 °FCool.N/A83%30.37 "Hg9 mi
8:00 PM59 °FCool.N/A77%30.35 "Hg4 mi
7:00 PM63 °FPassing clouds.N/A71%30.32 "Hg3 mi
6:00 PM67 °FScattered clouds.N/A57%30.29 "Hg7 mi
5:00 PM70 °FPassing clouds.N/A44%30.28 "Hg3 mi
4:00 PM70 °FPassing clouds.N/A47%30.30 "Hg12 mi
3:00 PM68 °FPartly sunny.N/A52%30.33 "Hg14 mi
2:00 PM66 °FOvercast.N/A59%30.36 "Hg13 mi
Weather by CustomWeather, © 2016

See weather overviewHow to use our weather pages